DL2JNL Weather Reports


time (UTC)temp
F
wind
direction
speed
knots
gust
knots
rain 1hr
in
rain 24hr
in
rain mn
in
humidity
%
barometer
mb
20260503195543 56 136 0.9 4.3 0.00 0.02 0.02 76 1014.4
20260503195040 56 168 0.9 5.2 0.00 0.02 0.02 76 1014.3
20260503194553 56 162 1.7 5.2 0.00 0.02 0.02 76 1014.4
20260503194042 56 0 0.9 6.1 0.00 0.02 0.02 76 1014.3
20260503193543 56 110 0.9 6.1 0.00 0.02 0.02 76 1014.2
20260503193052 56 168 1.7 6.1 0.00 0.02 0.02 76 1014.2
20260503192542 56 118 0.9 4.3 0.00 0.02 0.02 77 1014.1
20260503192041 56 122 0.9 4.3 0.00 0.02 0.02 77 1014.1
20260503191550 56 127 1.7 4.3 0.00 0.02 0.02 77 1014.1
20260503191044 56 115 0.9 2.6 0.00 0.02 0.02 78 1014.1
20260503190541 56 134 0.0 5.2 0.00 0.02 0.02 78 1014.0
20260503190055 56 167 0.9 5.2 0.00 0.02 0.02 78 1014.0
20260503185543 56 145 0.9 5.2 0.00 0.02 0.02 78 1013.9
20260503185044 56 141 0.9 3.5 0.00 0.02 0.02 79 1013.9
20260503184603 56 0 0.9 4.3 0.00 0.02 0.02 79 1013.8
20260503184039 56 200 0.9 4.3 0.00 0.02 0.02 79 1013.6
20260503183541 56 125 0.9 5.2 0.00 0.02 0.02 79 1013.8
20260503183057 56 169 1.7 5.2 0.00 0.02 0.02 79 1013.6
20260503182540 56 145 1.7 3.5 0.00 0.02 0.02 79 1013.7
20260503182040 57 127 0.9 9.6 0.00 0.02 0.02 79 1013.7
20260503181603 57 136 1.7 9.6 0.00 0.02 0.02 79 1013.6
20260503181043 57 229 1.7 5.2 0.00 0.02 0.02 79 1013.7
20260503180542 57 201 2.6 5.2 0.00 0.02 0.02 80 1013.6
20260503180049 57 150 0.9 4.3 0.00 0.02 0.02 80 1013.6
20260503175545 57 203 0.9 2.6 0.00 0.02 0.02 80 1013.5
20260503175039 57 117 0.9 2.6 0.00 0.02 0.02 80 1013.5
20260503174550 57 193 0.0 2.6 0.00 0.02 0.02 81 1013.5
20260503174042 57 236 0.9 2.6 0.00 0.02 0.02 81 1013.5
20260503173542 57 221 0.0 2.6 0.00 0.02 0.02 82 1013.4
20260503173054 57 119 0.9 2.6 0.01 0.02 0.02 82 1013.6
20260503172544 57 131 0.0 2.6 0.01 0.02 0.02 83 1013.6
20260503172042 57 145 0.0 2.6 0.02 0.02 0.02 83 1013.7
20260503171548 57 221 0.0 2.6 0.02 0.02 0.02 82 1013.9
20260503171042 57 205 0.0 1.7 0.02 0.02 0.02 82 1013.9
20260503170541 57 0 0.0 3.5 0.02 0.02 0.02 82 1013.9
20260503150538 65 231 1.7 9.6 0.00 0.00 0.00 55 1013.0
20260503131044 68 162 0.9 7.0 0.00 0.00 0.00 50 1013.5
20260503130543 68 131 0.9 7.0 0.00 0.00 0.00 50 1013.6
20260503110539 69 159 2.6 7.0 0.00 0.00 0.00 43 1013.6
20260503081617 64 70 4.3 10.4 0.00 0.00 0.00 47 1014.3
20260503081038 64 227 1.7 7.8 0.00 0.00 0.00 48 1014.4
20260503080538 64 252 1.7 11.3 0.00 0.00 0.00 49 1014.4
20260503080108 64 135 3.5 13.0 0.00 0.00 0.00 49 1014.4
20260503072539 64 153 4.3 10.4 0.00 0.00 0.00 51 1014.4
20260503072038 64 212 4.3 10.4 0.00 0.00 0.00 50 1014.2
20260503071551 63 194 3.5 8.7 0.00 0.00 0.00 51 1014.3
20260503071038 63 146 2.6 7.0 0.00 0.00 0.00 52 1014.3
20260503070538 63 108 2.6 7.0 0.00 0.00 0.00 52 1014.3
20260503055041 58 155 0.9 7.0 0.00 0.00 0.00 57 1014.2
20260503054555 58 165 1.7 7.0 0.00 0.00 0.00 57 1014.1
20260503054043 58 86 0.9 5.2 0.00 0.00 0.00 57 1014.1
20260503053542 58 123 0.9 5.2 0.00 0.00 0.00 56 1014.2
20260503053053 59 146 0.9 5.2 0.00 0.00 0.00 56 1014.2
20260503052544 59 124 2.6 5.2 0.00 0.00 0.00 55 1014.2
20260503052043 59 162 2.6 7.0 0.00 0.00 0.00 56 1014.2
20260503051552 59 127 1.7 7.0 0.00 0.00 0.00 56 1014.1
20260503051043 59 124 2.6 7.0 0.00 0.00 0.00 56 1013.9
20260503050542 59 165 1.7 7.0 0.00 0.00 0.00 56 1013.9
20260503050051 59 166 1.7 7.0 0.00 0.00 0.00 55 1014.0
20260503045542 59 150 1.7 7.0 0.00 0.00 0.00 56 1014.1
20260503045043 59 113 3.5 8.7 0.00 0.00 0.00 56 1014.1
20260503044604 59 140 2.6 8.7 0.00 0.00 0.00 56 1014.1
20260503044042 59 101 2.6 6.1 0.00 0.00 0.00 56 1014.0
20260503043542 59 182 1.7 5.2 0.00 0.00 0.00 56 1013.9
20260503043059 59 139 0.9 6.1 0.00 0.00 0.00 55 1013.9
20260503042542 59 150 1.7 6.1 0.00 0.00 0.00 55 1013.7
20260503042044 59 105 2.6 6.1 0.00 0.00 0.00 55 1014.0
20260503041553 59 134 2.6 6.1 0.00 0.00 0.00 55 1013.9
20260503041043 59 114 0.9 6.1 0.00 0.00 0.00 55 1014.0
20260503040542 59 139 1.7 5.2 0.00 0.00 0.00 54 1013.9
20260503040100 59 147 1.7 7.8 0.00 0.00 0.00 54 1014.1
20260503035542 60 165 1.7 7.8 0.00 0.00 0.00 54 1014.1
20260503035042 60 128 1.7 6.1 0.00 0.00 0.00 54 1014.0
20260503034555 60 165 0.9 6.1 0.00 0.00 0.00 54 1014.0
20260503034044 60 132 1.7 6.1 0.00 0.00 0.00 53 1014.0
20260503033545 60 191 0.9 5.2 0.00 0.00 0.00 53 1014.2
20260503033105 60 160 1.7 6.1 0.00 0.00 0.00 53 1014.2
20260503032542 60 0 0.9 7.0 0.00 0.00 0.00 53 1014.2
20260503032046 60 118 2.6 7.0 0.00 0.00 0.00 52 1014.2
20260503031600 60 139 2.6 7.0 0.00 0.00 0.00 52 1014.2
20260503031043 60 154 0.9 5.2 0.00 0.00 0.00 52 1014.3
20260503030545 61 150 1.7 6.1 0.00 0.00 0.00 52 1014.2
20260503030046 61 153 2.6 6.1 0.00 0.00 0.00 51 1014.3
20260503025542 61 127 0.9 7.0 0.00 0.00 0.00 52 1014.2
20260503025040 61 0 0.9 7.0 0.00 0.00 0.00 51 1014.4
20260503024621 61 119 1.7 7.0 0.00 0.00 0.00 51 1014.2
20260503024044 61 141 1.7 7.8 0.00 0.00 0.00 51 1014.4
20260503023547 61 173 3.5 7.8 0.00 0.00 0.00 51 1014.5
20260503023105 61 0 1.7 7.8 0.00 0.00 0.00 52 1014.5
20260503022605 61 165 0.9 6.1 0.00 0.00 0.00 53 1014.5
20260503022046 61 105 0.9 6.1 0.00 0.00 0.00 53 1014.6
20260503021600 61 157 0.9 7.0 0.00 0.00 0.00 54 1014.6
20260503021042 61 169 1.7 7.0 0.00 0.00 0.00 54 1014.7
20260503020543 61 110 1.7 5.2 0.00 0.00 0.00 54 1014.7
20260503020052 61 129 0.9 5.2 0.00 0.00 0.00 54 1014.6
20260503015546 62 115 0.9 7.0 0.00 0.00 0.00 54 1014.6
20260503015041 62 191 0.9 7.0 0.00 0.00 0.00 53 1014.8
20260503014554 62 212 1.7 5.2 0.00 0.00 0.00 52 1014.9
20260503014042 62 133 0.9 6.1 0.00 0.00 0.00 52 1014.8
20260503013544 63 120 1.7 6.1 0.00 0.00 0.00 52 1014.8
20260503013053 62 131 1.7 6.1 0.00 0.00 0.00 52 1014.8
20260503012549 62 158 0.9 6.1 0.00 0.00 0.00 52 1014.9
20260503012043 62 131 0.9 5.2 0.00 0.00 0.00 53 1014.9
20260503011557 62 126 1.7 7.8 0.00 0.00 0.00 53 1014.9
20260503011043 62 176 1.7 7.8 0.00 0.00 0.00 54 1014.9
20260503010539 62 125 0.9 6.1 0.00 0.00 0.00 54 1014.9
20260503010047 62 105 1.7 6.1 0.00 0.00 0.00 55 1015.0
20260503005543 62 125 2.6 6.1 0.00 0.00 0.00 56 1014.9
20260503005043 62 167 0.9 5.2 0.00 0.00 0.00 56 1015.1
20260503004548 62 0 0.9 7.0 0.00 0.00 0.00 57 1015.1
20260503004042 62 169 1.7 7.0 0.00 0.00 0.00 56 1015.1
20260503003544 62 138 0.9 7.8 0.00 0.00 0.00 56 1015.0
20260503003055 62 200 0.9 7.8 0.00 0.00 0.00 56 1015.3
20260503002545 62 126 2.6 7.8 0.00 0.00 0.00 57 1015.3
20260503002042 62 111 1.7 7.8 0.00 0.00 0.00 58 1015.2
20260503001600 62 0 1.7 7.8 0.00 0.00 0.00 59 1015.3
20260503001041 62 187 1.7 7.8 0.00 0.00 0.00 60 1015.6
20260503000542 62 91 0.9 5.2 0.00 0.00 0.00 61 1015.4
20260503000106 62 145 0.9 5.2 0.00 0.00 0.00 62 1015.4
20260502235544 62 135 0.9 3.5 0.00 0.00 0.00 63 1015.5
20260502235043 62 119 0.9 3.5 0.00 0.00 0.00 63 1015.5
20260502234606 62 153 0.9 3.5 0.00 0.00 0.00 63 1015.6
20260502234043 62 131 0.9 3.5 0.00 0.00 0.00 63 1015.6
20260502233545 62 136 0.0 3.5 0.00 0.00 0.00 63 1015.7
20260502233106 62 162 0.9 3.5 0.00 0.00 0.00 63 1015.7
20260502232542 62 139 0.9 2.6 0.00 0.00 0.00 64 1015.8
20260502232041 61 129 0.0 2.6 0.00 0.00 0.00 65 1015.8
20260502231559 60 0 0.0 0.9 0.00 0.00 0.00 67 1015.9
20260502231046 60 0 0.0 0.9 0.00 0.00 0.00 67 1015.9
20260502230543 60 165 0.0 0.9 0.00 0.00 0.00 68 1015.9
20260502230044 60 0 0.0 0.9 0.00 0.00 0.00 68 1015.9
20260502225546 61 0 0.0 0.9 0.00 0.00 0.00 67 1015.9
20260502225042 61 0 0.0 0.9 0.00 0.00 0.00 67 1015.9
20260502224552 61 0 0.0 0.9 0.00 0.00 0.00 67 1016.0
20260502224044 61 0 0.0 0.9 0.00 0.00 0.00 67 1015.9
20260502223540 61 0 0.0 0.9 0.00 0.00 0.00 67 1016.0
20260502223051 60 0 0.0 0.9 0.00 0.00 0.00 68 1015.9
20260502222542 60 0 0.0 0.9 0.00 0.00 0.00 69 1016.0
20260502222042 59 0 0.0 0.0 0.00 0.00 0.00 70 1016.0
20260502221601 59 0 0.0 0.0 0.00 0.00 0.00 71 1016.1
20260502221039 59 0 0.0 0.0 0.00 0.00 0.00 72 1016.0
20260502220543 59 0 0.0 0.9 0.00 0.00 0.00 72 1016.1
20260502220053 59 0 0.0 0.9 0.00 0.00 0.00 73 1016.1
20260502215542 59 0 0.0 0.0 0.00 0.00 0.00 73 1016.0
20260502215044 59 0 0.0 0.0 0.00 0.00 0.00 72 1016.1
20260502214554 60 0 0.0 0.9 0.00 0.00 0.00 72 1016.2
20260502214044 60 0 0.0 0.9 0.00 0.00 0.00 72 1016.2
20260502213542 60 0 0.0 0.0 0.00 0.00 0.00 72 1016.2
20260502213053 60 0 0.0 0.0 0.00 0.00 0.00 71 1016.3
20260502212544 60 0 0.0 0.0 0.00 0.00 0.00 70 1016.3
20260502212043 61 0 0.0 0.0 0.00 0.00 0.00 70 1016.3
20260502211557 61 0 0.0 0.0 0.00 0.00 0.00 70 1016.4
20260502211042 61 0 0.0 0.0 0.00 0.00 0.00 70 1016.4
20260502210540 61 0 0.0 0.0 0.00 0.00 0.00 70 1016.5
20260502210047 61 0 0.0 0.0 0.00 0.00 0.00 69 1016.6
20260502205539 62 0 0.0 0.0 0.00 0.00 0.00 69 1016.6
20260502205043 62 0 0.0 0.0 0.00 0.00 0.00 68 1016.7
20260502204553 63 0 0.0 0.9 0.00 0.00 0.00 68 1016.7
20260502204044 63 0 0.0 2.6 0.00 0.00 0.00 68 1016.6
20260502203543 64 0 0.0 4.3 0.00 0.00 0.00 68 1016.7
20260502203101 65 202 0.0 4.3 0.00 0.00 0.00 64 1016.7
20260502202543 64 91 0.0 2.6 0.00 0.00 0.00 64 1016.4
20260502202043 64 0 0.0 8.7 0.00 0.00 0.00 68 1016.6
20260502201554 65 24 0.9 8.7 0.00 0.00 0.00 67 1016.8
20260502201043 67 49 0.9 8.7 0.00 0.00 0.00 60 1016.7
20260502200545 67 129 2.6 8.7 0.00 0.00 0.00 55 1016.3
20260502200052 67 141 3.5 8.7 0.00 0.00 0.00 55 1016.3